Regional Weather Roundup
Issued by NWS

Home | Current Version | Previous Version | Graphics & Text | Print | Product List | Glossary On
Versions: 1 2 3 4 5 6 7 8 9 10 11 12 13 14 15 16 17 18 19 20 21 22 23 24 25 26 27 28 29 30 31 32 33 34 35 36 37 38 39 40 41 42 43 44 45 46 47 48 49 50
000
ASUS43 KLMK 100002
RWRKY
KENTUCKY REGIONAL WEATHER ROUNDUP
NATIONAL WEATHER SERVICE LOUISVILLE KY
700 PM EST FRI DEC 09 2016

NOTE "FAIR" INDICATES FEW OR NO CLOUDS BELOW 12,000 FEET
WITH NO SIGNIFICANT WEATHER AND/OR OBSTRUCTIONS TO VISIBILITY.

KYZ001>023-026-027-061>063-070>075-100100-
WESTERN AND SOUTH CENTRAL KENTUCKY

CITY           SKY/WX    TMP DP  RH WIND       PRES   REMARKS
PADUCAH        CLEAR     29  12  49 CALM      30.56S
HENDERSON      CLEAR     27  12  54 N3        30.57F
OWENSBORO      PTCLDY    27  16  63 CALM      30.58S
HOPKINSVILLE   CLOUDY    28  16  59 CALM      30.54F
BOWLING GREEN  CLEAR     28  16  60 N5        30.56F WCI  23
GLASGOW        NOT AVBL
$$

KYZ024-025-028>034-038-045-046-053-100100-
NORTH CENTRAL KENTUCKY

CITY           SKY/WX    TMP DP  RH WIND       PRES   REMARKS
LOUISVILLE/SDF NOT AVBL
LOUISVILLE/LOU CLOUDY    26  13  57 SW6       30.58S WCI  19
FORT KNOX      CLOUDY    23  13  64 W6        30.54F WCI  16
$$

KYZ035>037-039>044-047>052-055>060-089>105-100100-
NORTHEAST KENTUCKY

CITY           SKY/WX    TMP DP  RH WIND       PRES   REMARKS
LEXINGTON      CLOUDY    24  13  62 NW6       30.54S WCI  17
COVINGTON      FLURRIES  24  14  65 W9        30.54R WCI  14
FRANKFORT      CLOUDY    25  12  58 NW3       30.55S
$$

KYZ054-064>069-076>088-106>120-100100-
SOUTHEAST KENTUCKY

CITY           SKY/WX    TMP DP  RH WIND       PRES   REMARKS
JACKSON        PTCLDY    22  12  65 NW6       30.49F WCI  14
LONDON         CLEAR     23  13  65 N3        30.51R
SOMERSET       CLEAR     25  14  63 CALM      30.55S
MIDDLESBORO    CLEAR     25  17  71 CALM      30.51S
MONTICELLO     CLEAR     20  15  81 NE13      30.55R WCI   7
$$




USA.gov is the U.S. government's official web portal to all federal, state and local government web resources and services.